Lid_Strength_Index
3 5 6 7 11 13 15 14 12 12 12 10 11 11 9 8 9 11 4 1 0 0 -0 -0 -1 -2 -2 -2 -2 -2 -2 -2 -2 -2 -2 -2 -2 -2 -2 -2 -2 -2 -2 -2 -2 -2 -2 -2 -1
4 5 7 10 13 15 15 13 13 12 10 7 8 7 8 10 6 5 3 1 -0 -0 -0 -0 -1 -2 -2 -2 -2 -2 -2 -2 -2 -2 -2 -2 -2 -2 -2 -2 -2 -2 -2 -2 -2 -2 -2 -2 -2
5 7 8 12 15 15 15 14 12 11 9 10 9 7 8 9 6 4 3 0 -0 -0 -0 -0 -1 -2 -2 -2 -2 -2 -2 -2 -2 -2 -2 -2 -2 -2 -2 -2 -2 -2 -2 -2 -2 -2 -2 -2 -2
7 9 10 13 15 14 13 12 11 11 11 9 8 9 7 4 4 3 1 0 0 0 -0 -0 -1 -2 -2 -2 -2 -2 -2 -2 -2 -2 -2 -2 -2 -2 -2 -2 -2 -2 -2 -2 -2 -2 -2 -2 -2
9 11 13 14 14 12 12 11 11 11 10 9 9 9 9 5 3 1 1 0 1 -0 0 -0 -1 -1 -2 -2 -2 -2 -2 -2 -2 -2 -2 -2 -2 -2 -2 -2 -2 -2 -2 -2 -2 -2 -2 -2 -2
10 11 14 15 15 13 11 11 11 12 11 10 8 9 8 5 3 2 1 1 0 -0 0 -0 1 -0 -1 -1 -2 -2 -2 -2 -2 -2 -2 -2 -2 -2 -2 -2 -2 -2 -2 -2 -2 -2 -2 -2 -2
11 13 15 15 14 13 11 10 12 11 11 10 6 9 8 6 3 2 1 1 -0 -0 -0 0 0 0 0 -1 -1 -1 -2 -2 -2 -2 -2 -2 -2 -2 -2 -2 -2 -2 -2 -2 -2 -2 -2 -2 -2
11 12 15 14 14 13 11 10 11 11 11 9 6 9 9 5 3 2 2 1 0 0 -0 -0 0 0 0 0 0 -0 -1 -1 -1 -1 -1 -1 -2 -2 -2 -1 -2 -2 -2 -2 -2 -2 -2 -2 -1
11 13 15 14 13 13 12 11 12 10 10 10 9 7 6 3 3 3 2 2 1 1 0 0 -0 1 0 0 1 0 -0 -0 -0 -0 0 1 1 1 0 -1 -2 -2 -2 -1 -2 -2 -1 -0 -0
11 14 13 12 13 13 11 12 10 10 10 10 8 6 4 3 3 4 4 3 3 2 1 1 1 -0 1 0 1 1 1 1 1 2 2 3 3 2 1 0 -1 -2 -1 -1 -1 0 2 4 5
12 13 12 12 12 11 11 12 11 11 11 10 9 7 5 5 4 4 3 3 3 2 1 0 0 -0 0 1 1 2 2 2 2 3 3 2 2 2 2 2 3 3 3 4 5 6 6 7 6
13 12 12 11 11 11 11 11 12 11 10 10 9 6 5 5 5 4 4 3 3 2 1 1 0 0 0 1 1 2 2 3 3 3 3 3 3 3 4 4 5 5 6 7 7 8 8 8 8
13 13 12 11 12 13 11 12 12 12 10 11 10 5 5 4 4 4 4 4 3 3 2 1 1 1 1 1 1 2 2 2 3 3 3 3 3 4 4 5 5 6 7 8 8 8 9 9 9
11 12 13 12 12 12 13 14 13 12 12 12 9 6 5 5 4 6 6 5 4 2 2 1 1 0 1 1 1 1 2 2 3 3 3 3 3 3 4 5 6 7 7 8 9 10 10 11 11
12 13 13 13 12 12 12 13 13 12 13 12 11 9 6 6 6 5 4 5 4 3 2 2 1 1 1 1 0 1 1 1 2 3 3 3 3 3 3 5 6 7 8 10 10 10 11 11 12
13 14 16 14 12 13 14 16 13 12 13 12 12 13 10 7 6 5 5 5 5 4 3 2 1 1 1 1 1 0 1 2 2 2 3 3 3 3 4 4 5 7 8 10 9 11 12 12 13
15 18 17 14 12 13 14 15 13 12 12 13 13 13 12 12 11 8 5 4 4 4 2 2 2 1 1 1 1 0 1 1 2 2 2 3 3 4 4 5 5 7 9 10 10 12 12 12 13
16 17 17 16 14 13 15 14 12 12 13 12 13 12 12 11 11 10 9 4 3 3 2 1 1 2 1 0 1 1 1 1 2 2 2 3 3 3 4 5 6 8 9 10 11 12 12 12 13
14 16 17 16 14 14 15 14 12 12 13 12 12 12 11 11 9 10 10 10 6 4 3 1 2 2 2 1 2 2 2 2 2 2 2 3 3 4 4 5 6 8 10 10 11 13 13 14 14
15 16 17 15 13 14 15 14 13 13 13 12 11 11 11 11 11 11 10 11 10 6 3 2 1 1 1 1 1 1 1 2 1 2 2 3 3 4 4 5 6 7 9 11 12 13 13 14 13
16 16 17 15 15 15 16 17 15 14 14 13 12 11 11 11 11 11 11 11 11 11 6 3 1 1 1 1 1 6 6 6 6 5 3 3 3 4 4 4 6 7 8 11 12 12 12 15 14
16 14 14 15 16 18 16 20 17 15 14 14 12 12 12 13 12 12 11 12 12 12 10 6 2 2 1 1 1 2 2 3 3 3 3 3 3 3 4 5 5 7 8 10 11 11 11 12 14
14 13 14 15 17 18 19 19 18 16 15 13 12 13 13 12 12 13 12 11 11 11 11 8 4 2 2 1 1 2 2 2 5 5 5 5 5 4 4 4 5 6 7 8 10 11 11 11 12
12 13 14 16 17 19 18 18 19 17 15 15 14 13 12 11 11 11 11 10 10 8 8 6 4 3 2 1 1 2 2 5 6 7 6 6 7 7 7 6 5 5 6 7 9 10 10 11 12
14 15 19 20 20 20 18 19 18 15 14 14 13 13 12 11 11 11 11 10 10 8 7 6 4 3 3 3 2 3 3 5 5 6 6 8 7 9 8 7 8 6 5 6 7 10 11 11 12
15 15 18 22 21 20 17 19 17 14 13 12 11 11 11 11 11 11 11 11 10 9 8 6 4 4 4 4 4 5 5 5 6 7 7 7 7 7 8 7 7 6 6 6 8 9 10 11 11
14 16 14 18 24 21 19 17 14 13 13 12 12 12 12 12 11 12 11 11 10 9 9 8 7 7 6 6 7 7 6 7 7 8 8 9 9 10 8 7 8 8 8 8 8 9 11 11 11
13 12 16 17 23 23 20 19 17 15 14 13 12 12 12 11 11 11 11 10 10 10 9 9 8 8 7 6 7 7 8 8 9 10 10 10 10 11 12 10 10 10 10 9 9 10 11 11 11
14 15 14 14 16 19 22 19 16 15 13 13 13 12 11 11 11 11 11 11 10 10 10 10 10 9 8 8 8 8 8 9 9 10 10 11 12 12 13 13 13 12 11 11 10 11 12 12 11
13 14 14 18 20 19 19 18 14 14 13 13 12 11 11 11 11 11 11 11 11 11 11 10 10 9 9 9 9 9 9 10 11 11 11 12 12 13 13 14 14 14 14 12 12 12 12 12 12